Location: Zagreb
(45.8000°N, 16.0000°E)
Time: 00:53:41
(UTC+01:00)

NO-84 - Pass Details

Date: 04 November 2020
Orbit: 323 x 458 km, 55.0° (Epoch: 25 November)

Event Time Altitude Azimuth Distance (km) Brightness Sun altitude
Exits shadow 05:52:37 - 317° (NW) 1,549 ? -8.8°
Reaches altitude 10° 05:52:53 10° 319° (NW) 1,445 ? -8.8°
Maximum altitude 05:55:48 30° 23° (NNE) 713 ? -8.3°
Drops below altitude 10° 05:58:33 10° 88° (E) 1,369 ? -7.8°
Sets 06:00:40 0° 100° (E) 2,187 ? -7.5°
